Theta_e
304 304 304 305 305 306 303 295 284 301 302 286 285 284 286 290 291 295 292 291 290 288 289 287 288 287 290 296 295 290 293 289 284 287 294 296 295 292 292 286 284 288 287 288
305 305 305 305 306 306 298 289 288 300 298 282 284 285 287 291 291 291 291 289 291 291 288 284 289 290 295 295 294 291 293 287 281 283 288 293 290 293 293 293 292 285 284 287
305 305 305 306 306 307 298 291 284 288 291 291 287 285 286 287 294 291 292 291 292 290 288 290 287 288 292 295 295 296 296 289 285 281 284 290 287 290 291 291 285 286 288 291
306 306 305 306 307 306 301 293 285 285 282 284 289 289 287 286 285 291 293 290 291 289 285 287 286 289 291 294 296 295 293 284 287 288 289 289 288 288 289 287 290 285 289 291
307 307 306 306 306 305 298 289 288 291 287 288 288 288 286 286 287 289 287 289 291 291 287 288 286 290 290 289 293 292 293 285 285 282 287 287 285 288 288 289 289 288 288 287
305 305 306 305 305 305 294 295 298 293 288 287 286 287 287 287 289 288 292 292 289 289 291 293 295 295 293 292 291 290 289 287 284 280 286 285 280 285 286 288 290 289 285 292
306 306 306 306 304 303 298 299 299 292 284 288 287 289 289 288 289 286 290 292 289 291 296 295 293 291 290 290 290 293 287 285 285 280 282 274 285 291 291 289 291 293 293 295
306 306 305 305 304 300 298 297 299 294 285 288 287 288 287 288 289 287 288 290 294 296 291 286 282 281 281 282 287 288 289 287 281 277 278 281 283 285 285 286 287 294 294 296
305 305 304 303 300 299 296 293 297 295 287 287 289 287 287 285 284 285 287 292 295 294 288 285 278 276 279 278 282 288 287 287 282 280 274 272 282 288 292 291 282 292 293 294
303 303 302 301 300 300 297 292 295 294 285 287 290 287 285 290 288 284 285 287 288 292 285 281 279 278 281 277 278 280 280 281 278 278 276 281 288 291 293 282 282 285 286 286
303 303 302 300 300 299 295 291 295 293 285 285 288 288 287 288 291 285 285 287 286 285 283 282 281 280 280 280 281 282 280 279 279 279 277 275 290 292 285 282 282 281 281 282
302 302 301 301 300 300 298 290 292 295 287 285 289 289 289 287 288 289 286 286 286 288 286 286 286 281 282 282 277 285 279 283 282 284 283 288 284 283 280 277 276 277 277 278
300 300 300 299 298 298 296 289 289 293 286 286 287 285 290 292 292 293 286 286 290 288 291 289 285 281 285 280 281 283 286 284 283 284 287 280 282 279 276 275 274 276 276 276
299 298 297 297 297 296 294 288 289 292 287 283 282 290 287 291 293 293 292 289 290 290 291 286 283 282 286 282 283 283 278 278 278 279 283 275 281 275 273 272 274 273 274 274
297 297 297 296 295 295 292 291 290 290 290 280 282 286 287 289 290 290 291 290 288 286 284 283 281 284 283 284 283 281 271 269 274 278 270 268 270 272 271 270 269 270 270 270
296 296 295 294 293 291 295 286 290 287 290 286 279 283 280 282 287 286 285 287 286 286 285 283 283 279 280 279 279 267 268 268 268 267 268 267 268 270 271 267 268 268 268 269
294 293 293 293 292 287 283 282 283 286 289 285 280 279 278 279 284 284 284 285 284 286 284 282 282 278 279 276 274 266 266 266 266 267 265 265 267 264 266 267 267 267 266 268
294 291 289 289 291 290 285 285 285 286 286 285 280 276 279 277 280 280 282 282 284 283 283 279 277 274 274 271 265 264 264 264 265 264 263 263 264 264 264 264 264 263 263 265
292 291 289 287 282 283 282 286 284 280 283 277 277 278 275 276 275 278 280 281 277 283 280 276 276 272 270 266 264 262 261 260 260 261 260 261 260 260 261 261 261 261 261 263
288 288 286 282 278 282 283 283 283 275 272 272 266 265 271 273 274 274 276 277 278 275 275 274 272 272 264 263 263 262 261 260 259 256 258 258 258 258 259 260 261 261 261 261
284 282 279 279 280 283 279 273 273 269 270 264 262 263 268 270 271 271 273 273 274 272 272 272 270 269 266 263 262 262 261 260 259 259 259 259 259 258 259 259 261 261 260 261
278 278 276 279 275 278 273 264 267 266 264 263 264 263 264 267 269 270 270 271 271 270 271 271 268 266 262 261 260 260 260 259 258 259 259 259 259 259 259 259 260 260 260 261
279 278 273 276 270 268 270 266 267 267 262 260 261 265 263 266 268 268 269 268 270 269 269 269 269 264 262 260 259 259 259 259 259 259 259 259 259 259 259 258 260 259 259 260
272 273 267 267 268 264 265 265 264 260 262 260 261 262 264 264 267 267 268 267 266 266 265 267 266 263 260 260 260 258 259 258 258 258 258 258 258 258 259 259 259 258 258 259
268 271 264 262 257 257 256 254 257 258 259 260 261 260 263 265 265 265 266 265 265 267 268 267 265 261 260 259 259 258 258 256 257 258 257 257 257 257 257 258 258 258 258 258
265 263 261 255 261 260 258 258 260 258 259 258 259 263 264 265 264 264 266 265 265 267 267 265 261 258 258 257 257 257 256 256 256 256 256 256 256 255 256 257 257 256 257 256
265 259 255 260 262 264 261 260 259 258 258 264 262 263 264 261 263 264 264 266 267 266 264 263 261 260 259 257 256 256 255 255 254 254 254 254 255 255 256 255 256 255 257 256
Wind_Speed
34 33 33 30 27 24 23 7 5 9 15 13 5 16 10 10 24 17 6 13 12 20 25 22 22 20 19 10 20 24 21 7 12 17 12 13 19 23 23 6 7 9 19 21
34 34 34 32 30 31 8 9 3 11 13 11 8 7 11 18 27 20 12 8 9 18 19 12 17 17 13 11 17 15 15 9 10 6 11 12 10 19 20 18 19 19 8 14
41 38 34 34 34 32 9 5 5 5 8 2 15 11 12 19 15 8 6 14 19 22 20 5 18 15 13 13 11 7 8 15 14 16 13 6 7 16 21 21 16 12 17 24
31 44 42 39 37 33 9 4 3 2 11 5 15 8 11 23 12 6 12 9 20 21 16 9 10 18 13 13 12 14 8 5 15 22 20 21 20 15 11 11 18 19 24 27
33 37 37 39 39 36 5 6 4 4 8 18 16 12 14 19 9 8 10 16 22 13 15 10 16 16 15 10 16 13 10 4 7 6 14 16 21 23 23 23 22 18 23 28
33 34 42 40 34 13 3 2 5 7 16 17 10 10 12 14 13 8 11 22 16 13 14 8 12 7 5 5 13 16 9 6 2 6 8 13 11 23 23 23 24 22 22 28
34 31 29 24 14 11 1 8 9 8 10 10 9 18 17 14 8 11 14 11 12 10 17 16 11 11 7 2 3 2 2 3 1 4 3 9 12 13 16 18 20 20 22 28
26 26 22 15 10 10 1 1 5 5 13 11 15 19 20 19 19 17 14 4 9 15 7 5 5 4 5 3 7 10 9 5 3 4 6 14 22 18 15 17 21 18 21 27
22 20 16 10 7 11 4 2 3 9 12 4 17 16 16 13 9 5 6 8 6 5 4 3 5 6 3 4 1 2 12 10 6 4 6 9 15 8 11 13 19 13 16 19
22 21 13 7 5 9 7 4 6 7 9 6 3 6 8 4 7 7 5 2 4 5 3 3 4 4 1 5 4 5 5 5 13 11 10 13 5 12 11 12 7 19 17 16
23 19 15 13 8 11 8 4 9 5 7 5 8 7 5 3 3 7 7 5 2 2 3 3 4 4 6 3 6 7 10 8 7 8 9 17 13 3 14 9 7 12 19 18
23 21 19 15 12 12 7 6 5 9 10 6 7 13 12 6 3 8 2 2 4 5 3 2 3 3 3 3 4 7 7 11 5 10 9 11 9 7 8 14 14 15 18 23
23 22 25 21 21 19 12 4 2 5 6 6 6 6 10 15 10 4 6 1 2 4 3 3 3 3 3 5 8 8 7 7 6 9 10 9 8 9 13 17 18 17 16 19
21 21 24 25 25 25 15 6 4 3 5 7 5 6 6 10 11 11 6 10 7 5 4 3 3 2 1 2 3 4 3 5 4 10 10 20 12 14 18 25 20 19 20 20
21 19 16 12 14 21 15 9 8 6 2 7 5 3 7 9 10 13 13 10 6 3 3 3 3 2 2 3 4 7 4 2 4 8 10 6 14 19 26 20 22 22 23 25
22 25 23 16 8 3 3 6 6 11 5 7 5 2 4 8 9 12 11 7 5 3 2 2 3 3 2 3 4 5 4 1 4 7 16 16 21 22 12 22 22 22 21 21
17 19 22 24 24 11 8 4 6 16 5 6 6 4 4 6 3 3 4 4 3 1 2 2 2 2 3 2 5 4 4 5 8 10 11 8 9 14 21 19 20 20 19 16
12 12 13 12 16 14 6 8 15 5 5 5 5 4 2 9 3 3 2 2 1 2 2 3 2 2 1 5 5 3 4 7 3 5 9 12 14 15 15 16 16 17 16 17
14 12 8 3 9 5 3 17 7 7 8 5 4 2 3 7 3 2 2 2 2 2 2 3 3 3 6 3 2 3 3 2 7 10 10 7 10 13 13 16 16 16 17 16
11 5 4 4 3 13 11 4 5 9 8 7 6 1 3 6 3 3 1 1 0 3 3 4 2 1 4 3 2 2 3 3 3 5 5 9 10 11 14 15 13 13 13 14
4 5 3 2 10 2 5 5 7 6 6 7 3 4 3 6 3 3 3 1 1 3 4 3 2 3 4 3 1 0 2 2 2 4 6 7 8 11 12 14 14 12 13 12
3 4 2 1 7 4 8 3 2 7 4 3 3 4 4 3 3 2 1 1 1 2 2 3 4 4 4 3 2 1 2 2 2 3 5 7 6 7 9 10 12 13 13 11
1 4 6 6 6 9 5 3 2 2 2 4 4 1 2 1 1 1 1 3 3 2 4 3 1 5 4 3 2 2 1 2 3 4 5 7 9 7 6 8 8 11 11 11
6 5 6 5 3 4 2 2 3 3 2 2 3 2 2 1 2 1 3 2 1 2 4 4 3 4 4 3 2 2 1 3 5 4 5 7 8 8 7 6 8 9 10 12
6 4 5 4 2 2 2 1 2 1 2 2 1 2 2 1 2 1 0 2 5 4 1 3 3 5 4 4 2 1 1 1 3 5 4 5 6 7 7 6 7 8 8 9
5 6 5 2 2 3 3 2 2 1 0 1 2 1 2 1 2 3 4 2 4 2 2 3 4 4 3 3 2 1 1 2 3 4 4 5 5 5 7 7 5 7 7 8
4 3 1 1 3 3 2 1 2 1 2 1 1 2 1 1 2 3 3 2 2 2 2 2 2 3 4 3 2 2 1 2 3 3 3 4 5 5 4 6 8 8 7 6
Wind_Direction
203 201 199 202 192 193 186 149 170 167 165 185 166 187 157 183 168 152 145 156 158 169 174 191 186 205 205 210 204 199 211 243 248 240 245 253 254 225 224 227 208 250 252 262
199 196 196 196 191 183 162 134 118 162 161 179 159 127 153 169 163 156 146 148 162 162 166 188 198 203 205 184 204 199 195 231 237 253 242 220 234 244 232 241 258 254 256 253
205 193 186 182 178 174 137 125 190 153 157 73 149 147 154 150 157 94 112 136 143 149 167 188 191 196 196 189 219 104 210 223 223 237 238 233 200 241 243 247 244 248 241 269
177 183 189 186 180 169 169 123 216 128 155 152 145 141 149 142 142 121 140 138 156 148 155 155 179 191 174 210 201 185 185 233 251 246 253 258 268 247 246 256 257 254 260 253
142 166 172 173 165 163 144 153 145 129 113 138 137 143 169 154 118 151 139 149 154 145 153 174 170 172 186 181 190 201 175 217 192 269 264 264 270 268 261 253 237 247 259 270
121 111 136 141 149 155 102 118 144 129 143 144 138 158 151 148 120 29 142 133 131 124 152 143 143 132 93 144 181 195 205 226 149 245 235 239 254 247 257 259 254 251 244 251
123 124 134 134 106 98 12 168 157 135 124 145 142 151 134 140 122 123 120 121 112 117 115 97 71 59 63 122 154 216 121 130 202 289 346 252 250 267 263 263 256 251 250 258
115 108 121 111 69 76 160 42 166 89 132 122 126 133 114 94 90 84 74 45 122 141 91 81 69 23 20 335 255 219 212 198 246 251 247 284 285 277 261 245 260 247 244 255
102 98 86 80 96 133 107 55 269 111 130 122 130 120 125 122 112 80 110 58 78 81 88 107 157 181 141 196 203 344 234 230 226 203 241 254 270 316 320 256 262 349 308 291
83 90 103 129 142 130 107 52 355 90 101 53 159 123 131 126 82 95 103 117 48 4 105 127 157 172 205 193 186 158 153 204 223 233 248 262 279 237 246 237 291 338 351 344
69 64 48 73 82 81 79 57 9 85 79 56 27 9 79 98 111 130 155 129 29 63 120 152 156 195 200 219 214 171 180 188 197 212 237 260 351 356 231 9 21 342 331 332
30 58 73 69 55 70 52 62 10 54 70 77 94 78 51 40 15 113 95 40 138 155 124 161 121 162 161 218 229 206 237 223 243 211 225 104 39 63 40 20 353 350 330 326
55 54 56 67 70 62 94 95 344 85 117 81 41 15 24 29 24 7 112 258 119 87 360 108 101 193 162 206 224 247 263 358 258 298 265 27 33 58 14 359 343 337 328 323
45 52 59 61 69 75 79 77 330 40 96 92 56 0 32 354 33 55 71 113 91 103 63 84 127 202 226 239 304 273 327 335 346 271 299 334 158 9 357 333 336 333 324 318
39 32 29 43 78 84 85 84 46 27 77 120 104 123 16 20 55 61 71 83 89 91 97 105 162 195 232 223 276 251 30 12 261 278 352 316 288 320 327 334 332 332 328 321
42 45 44 37 10 329 26 47 41 17 7 109 114 86 29 14 67 64 54 48 57 66 99 128 104 58 254 251 257 107 98 313 281 285 321 305 295 298 327 330 326 327 322 319
30 39 43 54 59 71 59 72 315 324 313 92 116 102 39 354 19 50 71 32 66 71 117 183 88 129 307 232 246 83 4 321 303 302 332 296 345 312 316 323 324 325 319 322
14 25 36 58 91 109 56 10 3 321 90 61 100 83 127 4 52 97 340 108 80 166 96 105 100 133 335 248 109 28 355 326 284 357 326 297 304 314 319 325 330 332 333 336
350 339 335 47 32 37 334 329 341 43 52 94 55 113 122 346 41 49 84 32 172 52 171 104 191 145 222 61 37 330 340 325 306 319 307 306 312 316 326 331 334 338 336 332
330 1 32 52 352 312 301 13 20 23 17 27 76 268 66 333 3 84 166 39 94 215 83 127 220 237 88 92 33 276 294 330 342 323 328 324 321 329 331 332 328 326 319 322
29 31 50 302 313 297 31 50 34 342 50 18 25 15 21 6 26 42 9 121 173 223 111 244 186 233 123 136 148 292 294 320 296 275 281 289 303 320 327 326 322 320 326 328
75 96 122 29 23 30 64 38 14 31 50 21 355 12 2 351 331 251 109 224 138 234 108 225 237 108 132 149 187 253 285 307 314 290 312 313 324 345 323 313 323 326 313 332
319 50 50 3 331 43 33 23 54 71 17 15 351 101 348 297 287 343 259 199 206 137 198 232 42 123 138 154 173 196 197 312 334 340 357 332 327 338 332 322 320 320 327 337
55 32 46 24 44 60 48 31 45 56 338 342 338 307 345 358 221 298 222 79 253 219 225 221 135 142 135 177 175 214 81 352 332 344 359 337 328 327 323 328 326 328 339 339
63 24 67 54 88 70 58 20 233 122 327 319 234 223 266 141 236 284 221 198 233 229 222 106 122 135 161 173 170 207 77 31 317 327 342 329 325 323 318 332 337 340 339 344
62 66 117 94 201 142 181 177 140 144 269 196 225 304 255 209 301 211 226 249 233 103 93 98 136 163 171 161 179 177 341 322 306 310 318 316 318 313 310 311 343 344 346 346
64 70 345 34 46 76 99 132 109 73 224 62 260 253 294 92 236 238 205 249 33 94 129 138 140 172 173 172 177 207 244 274 282 297 303 301 310 298 314 345 343 340 338 337